Location: Broletto
(44.6000°N, 10.5833°E)
Time: 07:01:26
(UTC+00:00)

Cosmos 389 Rocket - Pass Details

Date: 18 April 2021
Orbit: 441 x 472 km, 81.1° (Epoch: 06 May)

Event Time Altitude Azimuth Distance (km) Brightness Sun altitude
Exits shadow 20:00:20 42° 185° (S) 665 2.9 -18.8°
Maximum altitude 20:01:25 86° 102° (ESE) 470 2.3 -18.9°
Drops below altitude 10° 20:04:59 10° 11° (NNE) 1,629 5.6 -19.4°
Sets 20:07:06 0° 11° (NNE) 2,515 6.6 -19.7°
